Time,TemperatureF,DewpointF,PressureIn,WindDirection,WindDirectionDegrees,WindSpeedMPH,WindSpeedGustMPH,Humidity,HourlyPrecipIn,Conditions,Clouds,dailyrainin,SoftwareType,DateUTC
2013-02-02 00:01:00,50.3,41.3,30.22,WNW,285,0.0,0.0,71,0.00,,CLR,0.00,VWS V14.01,2013-02-02 08:01:00,
2013-02-02 00:06:00,51.0,41.2,30.22,WNW,285,0.0,0.0,69,0.00,,CLR,0.00,VWS V14.01,2013-02-02 08:06:00,
2013-02-02 00:11:00,51.1,41.3,30.22,WNW,285,0.0,0.0,69,0.00,,CLR,0.00,VWS V14.01,2013-02-02 08:11:00,
2013-02-02 00:16:00,50.6,40.8,30.22,WNW,285,0.0,0.0,69,0.00,,CLR,0.00,VWS V14.01,2013-02-02 08:16:00,
2013-02-02 00:21:00,50.2,40.8,30.22,WNW,285,0.0,0.0,70,0.00,,CLR,0.00,VWS V14.01,2013-02-02 08:21:00,
2013-02-02 00:26:00,50.3,40.9,30.22,WNW,285,0.0,0.0,70,0.00,,CLR,0.00,VWS V14.01,2013-02-02 08:26:00,
2013-02-02 00:31:00,50.3,40.9,30.21,WNW,285,0.0,0.0,70,0.00,,CLR,0.00,VWS V14.01,2013-02-02 08:31:00,
2013-02-02 00:36:00,50.0,41.0,30.21,WNW,285,0.0,1.0,71,0.00,,CLR,0.00,VWS V14.01,2013-02-02 08:36:00,
2013-02-02 00:41:00,50.0,41.0,30.21,WNW,291,0.0,1.0,71,0.00,,CLR,0.00,VWS V14.01,2013-02-02 08:41:00,
2013-02-02 00:46:00,49.8,40.8,30.21,WNW,291,0.0,1.0,71,0.00,,CLR,0.00,VWS V14.01,2013-02-02 08:46:00,
2013-02-02 00:51:00,49.7,40.7,30.21,WNW,291,0.0,1.0,71,0.00,,CLR,0.00,VWS V14.01,2013-02-02 08:51:00,
2013-02-02 00:56:00,49.9,40.9,30.21,WNW,291,0.0,1.0,71,0.00,,CLR,0.00,VWS V14.01,2013-02-02 08:56:00,
2013-02-02 01:01:00,49.7,40.7,30.21,WNW,291,0.0,0.0,71,0.00,,CLR,0.00,VWS V14.01,2013-02-02 09:01:00,
2013-02-02 01:06:00,49.5,40.5,30.21,WNW,291,0.0,1.0,71,0.00,,CLR,0.00,VWS V14.01,2013-02-02 09:06:00,
2013-02-02 01:11:00,49.3,40.3,30.21,WNW,291,0.0,1.0,71,0.00,,CLR,0.00,VWS V14.01,2013-02-02 09:11:00,
2013-02-02 01:16:00,49.1,40.5,30.22,WNW,291,0.0,1.0,72,0.00,,CLR,0.00,VWS V14.01,2013-02-02 09:16:00,
2013-02-02 01:21:00,48.6,40.3,30.22,WNW,291,0.0,1.0,73,0.00,,CLR,0.00,VWS V14.01,2013-02-02 09:21:00,
2013-02-02 01:26:00,48.1,40.2,30.22,WNW,291,0.0,1.0,74,0.00,,CLR,0.00,VWS V14.01,2013-02-02 09:26:00,
2013-02-02 01:31:00,47.5,40.3,30.22,WNW,291,0.0,0.0,76,0.00,,CLR,0.00,VWS V14.01,2013-02-02 09:31:00,
2013-02-02 01:36:00,47.9,40.4,30.22,WNW,289,0.0,0.0,75,0.00,,CLR,0.00,VWS V14.01,2013-02-02 09:36:00,
2013-02-02 01:41:00,47.6,40.4,30.22,WNW,290,0.0,0.0,76,0.00,,CLR,0.00,VWS V14.01,2013-02-02 09:41:00,
2013-02-02 01:46:00,47.6,40.4,30.22,WNW,290,0.0,0.0,76,0.00,,CLR,0.00,VWS V14.01,2013-02-02 09:46:00,
2013-02-02 01:51:00,48.1,40.6,30.22,WNW,290,0.0,0.0,75,0.00,,CLR,0.00,VWS V14.01,2013-02-02 09:51:00,
2013-02-02 01:56:00,48.8,40.5,30.23,WNW,289,0.0,0.0,73,0.00,,CLR,0.00,VWS V14.01,2013-02-02 09:56:00,
2013-02-02 02:01:00,49.2,40.6,30.23,WNW,289,0.0,0.0,72,0.00,,CLR,0.00,VWS V14.01,2013-02-02 10:01:00,
2013-02-02 02:06:00,49.6,41.0,30.23,WNW,289,0.0,0.0,72,0.00,,CLR,0.00,VWS V14.01,2013-02-02 10:06:00,
2013-02-02 02:11:00,50.0,41.0,30.23,WNW,290,0.0,0.0,71,0.00,,CLR,0.00,VWS V14.01,2013-02-02 10:11:00,
2013-02-02 02:16:00,49.8,40.8,30.23,WNW,289,0.0,0.0,71,0.00,,CLR,0.00,VWS V14.01,2013-02-02 10:16:00,
2013-02-02 02:21:00,49.1,40.8,30.23,WNW,289,0.0,0.0,73,0.00,,CLR,0.00,VWS V14.01,2013-02-02 10:21:00,
2013-02-02 02:26:00,48.4,40.5,30.23,WNW,289,0.0,0.0,74,0.00,,CLR,0.00,VWS V14.01,2013-02-02 10:26:00,
2013-02-02 02:31:00,47.8,40.6,30.23,WNW,290,0.0,0.0,76,0.00,,CLR,0.00,VWS V14.01,2013-02-02 10:31:00,
2013-02-02 02:37:00,47.2,40.4,30.24,WNW,290,0.0,0.0,77,0.00,,CLR,0.00,VWS V14.01,2013-02-02 10:37:00,
2013-02-02 02:42:00,46.7,40.2,30.24,WNW,289,0.0,0.0,78,0.00,,CLR,0.00,VWS V14.01,2013-02-02 10:42:00,
2013-02-02 02:47:00,46.4,40.2,30.23,WNW,289,0.0,0.0,79,0.00,,CLR,0.00,VWS V14.01,2013-02-02 10:47:00,
2013-02-02 02:52:00,46.6,40.5,30.23,WNW,290,0.0,0.0,79,0.00,,CLR,0.00,VWS V14.01,2013-02-02 10:52:00,
2013-02-02 02:57:00,47.0,40.5,30.23,WNW,289,0.0,0.0,78,0.00,,CLR,0.00,VWS V14.01,2013-02-02 10:57:00,
2013-02-02 03:02:00,47.0,40.5,30.23,WNW,290,0.0,0.0,78,0.00,,CLR,0.00,VWS V14.01,2013-02-02 11:02:00,
2013-02-02 03:07:00,46.7,40.5,30.23,WNW,290,0.0,0.0,79,0.00,,CLR,0.00,VWS V14.01,2013-02-02 11:07:00,
2013-02-02 03:12:00,46.7,40.5,30.23,WNW,289,0.0,0.0,79,0.00,,CLR,0.00,VWS V14.01,2013-02-02 11:12:00,
2013-02-02 03:17:00,46.9,40.7,30.23,WNW,290,0.0,0.0,79,0.00,,CLR,0.00,VWS V14.01,2013-02-02 11:17:00,
2013-02-02 03:22:00,46.7,40.5,30.23,WNW,289,0.0,0.0,79,0.00,,CLR,0.00,VWS V14.01,2013-02-02 11:22:00,
2013-02-02 03:27:00,46.7,40.9,30.23,WNW,290,0.0,0.0,80,0.00,,CLR,0.00,VWS V14.01,2013-02-02 11:27:00,
2013-02-02 03:32:00,46.6,40.8,30.23,WNW,289,0.0,0.0,80,0.00,,CLR,0.00,VWS V14.01,2013-02-02 11:32:00,
2013-02-02 03:37:00,46.7,40.9,30.23,WNW,290,0.0,0.0,80,0.00,,CLR,0.00,VWS V14.01,2013-02-02 11:37:00,
2013-02-02 03:42:00,46.9,41.1,30.23,WNW,289,0.0,0.0,80,0.00,,CLR,0.00,VWS V14.01,2013-02-02 11:42:00,
2013-02-02 03:47:00,46.9,40.7,30.23,WNW,289,0.0,0.0,79,0.00,,CLR,0.00,VWS V14.01,2013-02-02 11:47:00,
2013-02-02 03:52:00,46.8,40.6,30.23,WNW,290,0.0,0.0,79,0.00,,CLR,0.00,VWS V14.01,2013-02-02 11:52:00,
2013-02-02 03:57:00,46.8,40.6,30.23,WNW,290,0.0,0.0,79,0.00,,CLR,0.00,VWS V14.01,2013-02-02 11:57:00,
2013-02-02 04:02:00,46.5,40.7,30.22,WNW,290,0.0,0.0,80,0.00,,CLR,0.00,VWS V14.01,2013-02-02 12:02:00,
2013-02-02 04:07:00,46.3,40.8,30.23,WNW,290,0.0,0.0,81,0.00,,CLR,0.00,VWS V14.01,2013-02-02 12:07:00,
2013-02-02 04:12:00,46.1,40.6,30.23,WNW,290,0.0,0.0,81,0.00,,CLR,0.00,VWS V14.01,2013-02-02 12:12:00,
2013-02-02 04:17:00,45.7,40.5,30.23,WNW,289,0.0,0.0,82,0.00,,CLR,0.00,VWS V14.01,2013-02-02 12:17:00,
2013-02-02 04:22:00,45.6,40.4,30.23,WNW,289,0.0,0.0,82,0.00,,CLR,0.00,VWS V14.01,2013-02-02 12:22:00,
2013-02-02 04:27:00,45.3,40.5,30.23,WNW,290,0.0,0.0,83,0.00,,CLR,0.00,VWS V14.01,2013-02-02 12:27:00,
2013-02-02 04:32:00,45.2,40.3,30.23,WNW,290,0.0,0.0,83,0.00,,CLR,0.00,VWS V14.01,2013-02-02 12:32:00,
2013-02-02 04:37:00,45.1,40.2,30.23,WNW,289,0.0,0.0,83,0.00,,CLR,0.00,VWS V14.01,2013-02-02 12:37:00,
2013-02-02 04:42:00,44.9,40.1,30.23,WNW,289,0.0,0.0,83,0.00,,CLR,0.00,VWS V14.01,2013-02-02 12:42:00,
2013-02-02 04:47:00,44.7,39.9,30.23,WNW,290,0.0,0.0,83,0.00,,CLR,0.00,VWS V14.01,2013-02-02 12:47:00,
2013-02-02 04:52:00,44.6,40.1,30.23,WNW,290,0.0,0.0,84,0.00,,CLR,0.00,VWS V14.01,2013-02-02 12:52:00,
2013-02-02 04:57:00,44.5,40.0,30.23,WNW,290,0.0,0.0,84,0.00,,CLR,0.00,VWS V14.01,2013-02-02 12:57:00,
2013-02-02 05:02:00,44.5,40.0,30.23,North,3,0.0,0.0,84,0.00,,CLR,0.00,VWS V14.01,2013-02-02 13:02:00,
2013-02-02 05:07:00,44.4,39.9,30.23,North,4,0.0,1.0,84,0.00,,CLR,0.00,VWS V14.01,2013-02-02 13:07:00,
2013-02-02 05:12:00,44.5,40.0,30.23,North,8,0.0,1.0,84,0.00,,CLR,0.00,VWS V14.01,2013-02-02 13:12:00,
2013-02-02 05:17:00,45.2,40.0,30.23,NNE,30,1.0,3.0,82,0.00,,CLR,0.00,VWS V14.01,2013-02-02 13:17:00,
2013-02-02 05:22:00,46.1,40.3,30.23,North,8,0.0,3.0,80,0.00,,CLR,0.00,VWS V14.01,2013-02-02 13:22:00,
2013-02-02 05:27:00,46.4,40.2,30.23,North,4,0.0,3.0,79,0.00,,CLR,0.00,VWS V14.01,2013-02-02 13:27:00,
2013-02-02 05:32:00,46.4,40.2,30.23,North,358,0.0,0.0,79,0.00,,CLR,0.00,VWS V14.01,2013-02-02 13:32:00,
2013-02-02 05:37:00,46.1,40.3,30.23,North,359,0.0,1.0,80,0.00,,CLR,0.00,VWS V14.01,2013-02-02 13:37:00,
2013-02-02 05:42:00,45.9,40.1,30.23,North,359,0.0,1.0,80,0.00,,CLR,0.00,VWS V14.01,2013-02-02 13:42:00,
2013-02-02 05:47:00,45.7,39.9,30.23,North,358,0.0,1.0,80,0.00,,CLR,0.00,VWS V14.01,2013-02-02 13:47:00,
2013-02-02 05:52:00,45.5,40.0,30.23,North,358,0.0,1.0,81,0.00,,CLR,0.00,VWS V14.01,2013-02-02 13:52:00,
2013-02-02 05:57:00,45.5,40.0,30.23,North,359,0.0,1.0,81,0.00,,CLR,0.00,VWS V14.01,2013-02-02 13:57:00,
2013-02-02 06:02:00,45.8,40.0,30.23,North,358,0.0,1.0,80,0.00,,CLR,0.00,VWS V14.01,2013-02-02 14:02:00,
2013-02-02 06:07:00,45.9,40.1,30.23,North,358,0.0,1.0,80,0.00,,CLR,0.00,VWS V14.01,2013-02-02 14:07:00,
2013-02-02 06:12:00,46.2,40.4,30.23,North,358,0.0,1.0,80,0.00,,CLR,0.00,VWS V14.01,2013-02-02 14:12:00,
2013-02-02 06:17:00,46.5,40.3,30.23,North,358,0.0,1.0,79,0.00,,CLR,0.00,VWS V14.01,2013-02-02 14:17:00,
2013-02-02 06:22:00,46.6,40.5,30.23,North,358,0.0,1.0,79,0.00,,CLR,0.00,VWS V14.01,2013-02-02 14:22:00,
2013-02-02 06:27:00,46.8,40.3,30.23,North,359,0.0,1.0,78,0.00,,CLR,0.00,VWS V14.01,2013-02-02 14:27:00,
2013-02-02 06:32:00,46.9,40.4,30.23,North,359,0.0,0.0,78,0.00,,CLR,0.00,VWS V14.01,2013-02-02 14:32:00,
2013-02-02 06:37:00,46.6,40.1,30.24,North,358,0.0,0.0,78,0.00,,CLR,0.00,VWS V14.01,2013-02-02 14:37:00,
2013-02-02 06:42:00,46.3,40.2,30.24,North,358,0.0,0.0,79,0.00,,CLR,0.00,VWS V14.01,2013-02-02 14:42:00,
2013-02-02 06:47:00,45.9,40.1,30.24,North,358,0.0,0.0,80,0.00,,CLR,0.00,VWS V14.01,2013-02-02 14:47:00,
2013-02-02 06:52:00,45.4,39.9,30.24,North,358,0.0,0.0,81,0.00,,CLR,0.00,VWS V14.01,2013-02-02 14:52:00,
2013-02-02 06:57:00,45.2,40.0,30.24,North,359,0.0,0.0,82,0.00,,CLR,0.00,VWS V14.01,2013-02-02 14:57:00,
2013-02-02 07:02:00,45.2,40.0,30.24,North,358,0.0,0.0,82,0.00,,CLR,0.00,VWS V14.01,2013-02-02 15:02:00,
2013-02-02 07:07:00,45.3,40.1,30.24,North,358,0.0,0.0,82,0.00,,CLR,0.00,VWS V14.01,2013-02-02 15:07:00,
2013-02-02 07:12:00,45.5,40.3,30.24,North,359,0.0,0.0,82,0.00,,CLR,0.00,VWS V14.01,2013-02-02 15:12:00,
2013-02-02 07:17:00,45.8,40.3,30.24,North,359,0.0,0.0,81,0.00,,CLR,0.00,VWS V14.01,2013-02-02 15:17:00,
2013-02-02 07:22:00,46.0,40.2,30.25,North,359,0.0,0.0,80,0.00,,CLR,0.00,VWS V14.01,2013-02-02 15:22:00,
2013-02-02 07:27:00,46.1,40.3,30.25,North,358,0.0,0.0,80,0.00,,CLR,0.00,VWS V14.01,2013-02-02 15:27:00,
2013-02-02 07:32:00,45.9,40.1,30.25,North,359,0.0,0.0,80,0.00,,CLR,0.00,VWS V14.01,2013-02-02 15:32:00,
2013-02-02 07:37:00,45.7,40.2,30.25,North,359,0.0,0.0,81,0.00,,CLR,0.00,VWS V14.01,2013-02-02 15:37:00,
2013-02-02 07:42:00,45.9,40.4,30.25,North,359,0.0,0.0,81,0.00,,CLR,0.00,VWS V14.01,2013-02-02 15:42:00,
2013-02-02 07:47:00,46.3,40.5,30.25,North,359,0.0,0.0,80,0.00,,CLR,0.00,VWS V14.01,2013-02-02 15:47:00,
2013-02-02 07:52:00,46.5,40.3,30.25,North,359,0.0,0.0,79,0.00,,CLR,0.00,VWS V14.01,2013-02-02 15:52:00,
2013-02-02 07:57:00,46.5,40.3,30.26,North,359,0.0,0.0,79,0.00,,CLR,0.00,VWS V14.01,2013-02-02 15:57:00,
2013-02-02 08:02:00,46.6,40.8,30.26,North,358,0.0,0.0,80,0.00,,CLR,0.00,VWS V14.01,2013-02-02 16:02:00,
2013-02-02 08:07:00,46.7,40.9,30.26,North,359,0.0,0.0,80,0.00,,CLR,0.00,VWS V14.01,2013-02-02 16:07:00,
2013-02-02 08:12:00,46.8,41.3,30.26,North,358,0.0,0.0,81,0.00,,CLR,0.00,VWS V14.01,2013-02-02 16:12:00,
2013-02-02 08:17:00,46.7,41.2,30.26,North,359,0.0,1.0,81,0.00,,CLR,0.00,VWS V14.01,2013-02-02 16:17:00,
2013-02-02 08:22:00,46.8,41.3,30.26,North,358,0.0,1.0,81,0.00,,CLR,0.00,VWS V14.01,2013-02-02 16:22:00,
2013-02-02 08:27:00,47.0,41.5,30.26,North,358,0.0,1.0,81,0.00,,CLR,0.00,VWS V14.01,2013-02-02 16:27:00,
2013-02-02 08:32:00,47.2,41.4,30.26,North,359,0.0,0.0,80,0.00,,CLR,0.00,VWS V14.01,2013-02-02 16:32:00,
2013-02-02 08:37:00,47.4,41.5,30.26,North,358,0.0,0.0,80,0.00,,CLR,0.00,VWS V14.01,2013-02-02 16:37:00,
2013-02-02 08:42:00,47.7,41.8,30.27,North,359,0.0,0.0,80,0.00,,CLR,0.00,VWS V14.01,2013-02-02 16:42:00,
2013-02-02 08:47:00,48.1,41.9,30.27,North,358,0.0,0.0,79,0.00,,CLR,0.00,VWS V14.01,2013-02-02 16:47:00,
2013-02-02 08:52:00,48.6,42.4,30.27,North,359,0.0,0.0,79,0.00,,CLR,0.00,VWS V14.01,2013-02-02 16:52:00,
2013-02-02 08:57:00,49.1,42.2,30.27,North,353,0.0,0.0,77,0.00,,CLR,0.00,VWS V14.01,2013-02-02 16:57:00,
2013-02-02 09:02:00,49.7,42.5,30.27,North,355,0.0,0.0,76,0.00,,CLR,0.00,VWS V14.01,2013-02-02 17:02:00,
2013-02-02 09:08:00,50.1,43.2,30.28,SSE,148,0.0,1.0,77,0.00,,CLR,0.00,VWS V14.01,2013-02-02 17:08:00,
2013-02-02 09:13:00,50.5,43.6,30.28,SE,143,0.0,1.0,77,0.00,,CLR,0.00,VWS V14.01,2013-02-02 17:13:00,
2013-02-02 09:18:00,51.0,43.0,30.28,SE,143,0.0,1.0,74,0.00,,CLR,0.00,VWS V14.01,2013-02-02 17:18:00,
2013-02-02 09:23:00,51.5,43.5,30.28,SE,143,0.0,1.0,74,0.00,,CLR,0.00,VWS V14.01,2013-02-02 17:23:00,
2013-02-02 09:28:00,52.0,42.9,30.28,SE,143,0.0,1.0,71,0.00,,CLR,0.00,VWS V14.01,2013-02-02 17:28:00,
2013-02-02 09:33:00,52.5,43.4,30.28,SE,143,0.0,1.0,71,0.00,,CLR,0.00,VWS V14.01,2013-02-02 17:33:00,
2013-02-02 09:38:00,52.9,43.4,30.28,SE,143,0.0,1.0,70,0.00,,CLR,0.00,VWS V14.01,2013-02-02 17:38:00,
2013-02-02 09:43:00,53.0,43.1,30.28,ESE,122,0.0,1.0,69,0.00,,CLR,0.00,VWS V14.01,2013-02-02 17:43:00,
2013-02-02 09:48:00,53.0,43.9,30.28,East,94,0.0,1.0,71,0.00,,CLR,0.00,VWS V14.01,2013-02-02 17:48:00,
2013-02-02 09:53:00,53.0,43.9,30.28,East,89,0.0,1.0,71,0.00,,CLR,0.00,VWS V14.01,2013-02-02 17:53:00,
2013-02-02 09:58:00,53.4,43.5,30.28,South,181,0.0,1.0,69,0.00,,CLR,0.00,VWS V14.01,2013-02-02 17:58:00,
2013-02-02 10:03:00,54.0,44.5,30.29,South,181,0.0,0.0,70,0.00,,CLR,0.00,VWS V14.01,2013-02-02 18:03:00,
2013-02-02 10:08:00,54.2,44.3,30.29,SE,124,0.0,2.0,69,0.00,,CLR,0.00,VWS V14.01,2013-02-02 18:08:00,
2013-02-02 10:13:00,54.7,44.7,30.29,NE,53,0.0,2.0,69,0.00,,CLR,0.00,VWS V14.01,2013-02-02 18:13:00,
2013-02-02 10:18:00,54.9,44.5,30.29,ENE,58,0.0,2.0,68,0.00,,CLR,0.00,VWS V14.01,2013-02-02 18:18:00,
2013-02-02 10:23:00,55.4,45.0,30.29,ESE,120,0.0,2.0,68,0.00,,CLR,0.00,VWS V14.01,2013-02-02 18:23:00,
2013-02-02 10:28:00,55.5,44.3,30.29,NE,44,1.0,2.0,66,0.00,,CLR,0.00,VWS V14.01,2013-02-02 18:28:00,
2013-02-02 10:33:00,55.1,44.7,30.29,North,9,0.0,0.0,68,0.00,,CLR,0.00,VWS V14.01,2013-02-02 18:33:00,
2013-02-02 10:38:00,55.5,44.7,30.29,NNE,23,0.0,2.0,67,0.00,,CLR,0.00,VWS V14.01,2013-02-02 18:38:00,
2013-02-02 10:43:00,56.0,44.4,30.29,NNE,12,0.0,2.0,65,0.00,,CLR,0.00,VWS V14.01,2013-02-02 18:43:00,
2013-02-02 10:48:00,55.7,43.3,30.29,NNE,21,3.0,5.0,63,0.00,,CLR,0.00,VWS V14.01,2013-02-02 18:48:00,
2013-02-02 10:53:00,55.5,43.1,30.29,NNE,30,2.0,5.0,63,0.00,,CLR,0.00,VWS V14.01,2013-02-02 18:53:00,
2013-02-02 10:58:00,55.2,42.4,30.29,North,8,3.0,7.0,62,0.00,,CLR,0.00,VWS V14.01,2013-02-02 18:58:00,
2013-02-02 11:03:00,55.2,42.4,30.29,NE,43,3.0,6.0,62,0.00,,CLR,0.00,VWS V14.01,2013-02-02 19:03:00,
2013-02-02 11:08:00,55.2,42.0,30.29,NE,35,3.0,8.0,61,0.00,,CLR,0.00,VWS V14.01,2013-02-02 19:08:00,
2013-02-02 11:13:00,55.3,42.1,30.29,NNE,13,2.0,8.0,61,0.00,,CLR,0.00,VWS V14.01,2013-02-02 19:13:00,
2013-02-02 11:18:00,55.4,42.2,30.28,NNE,30,2.0,8.0,61,0.00,,CLR,0.00,VWS V14.01,2013-02-02 19:18:00,
2013-02-02 11:23:00,55.5,42.3,30.28,NNE,30,1.0,8.0,61,0.00,,CLR,0.00,VWS V14.01,2013-02-02 19:23:00,
2013-02-02 11:28:00,55.6,42.8,30.28,NNE,13,1.0,8.0,62,0.00,,CLR,0.00,VWS V14.01,2013-02-02 19:28:00,
2013-02-02 11:33:00,55.6,42.8,30.28,NE,49,3.0,5.0,62,0.00,,CLR,0.00,VWS V14.01,2013-02-02 19:33:00,
2013-02-02 11:38:00,55.7,42.9,30.28,NNE,28,2.0,6.0,62,0.00,,CLR,0.00,VWS V14.01,2013-02-02 19:38:00,
2013-02-02 11:43:00,55.8,43.0,30.27,NE,50,1.0,6.0,62,0.00,,CLR,0.00,VWS V14.01,2013-02-02 19:43:00,
2013-02-02 11:48:00,56.2,43.4,30.27,WNW,302,3.0,6.0,62,0.00,,CLR,0.00,VWS V14.01,2013-02-02 19:48:00,
2013-02-02 11:53:00,57.1,43.8,30.27,NE,41,2.0,6.0,61,0.00,,CLR,0.00,VWS V14.01,2013-02-02 19:53:00,
2013-02-02 11:58:00,57.7,43.5,30.26,NE,40,3.0,6.0,59,0.00,,CLR,0.00,VWS V14.01,2013-02-02 19:58:00,
2013-02-02 12:03:00,58.2,44.0,30.26,NNE,23,0.0,1.0,59,0.00,,CLR,0.00,VWS V14.01,2013-02-02 20:03:00,
2013-02-02 12:08:00,58.8,43.2,30.26,NNE,22,2.0,3.0,56,0.00,,CLR,0.00,VWS V14.01,2013-02-02 20:08:00,
2013-02-02 12:13:00,58.8,43.2,30.25,NNE,12,1.0,6.0,56,0.00,,CLR,0.00,VWS V14.01,2013-02-02 20:13:00,
2013-02-02 12:18:00,59.2,42.6,30.25,NE,41,4.0,6.0,54,0.00,,CLR,0.00,VWS V14.01,2013-02-02 20:18:00,
2013-02-02 12:23:00,59.7,42.1,30.25,NE,37,2.0,6.0,52,0.00,,CLR,0.00,VWS V14.01,2013-02-02 20:23:00,
2013-02-02 12:28:00,60.1,41.4,30.25,NNE,18,1.0,6.0,50,0.00,,CLR,0.00,VWS V14.01,2013-02-02 20:28:00,
2013-02-02 12:33:00,60.3,42.1,30.25,ESE,116,1.0,5.0,51,0.00,,CLR,0.00,VWS V14.01,2013-02-02 20:33:00,
2013-02-02 12:38:00,60.5,41.8,30.25,NNE,13,1.0,5.0,50,0.00,,CLR,0.00,VWS V14.01,2013-02-02 20:38:00,
2013-02-02 12:43:00,61.0,41.7,30.25,North,353,3.0,5.0,49,0.00,,CLR,0.00,VWS V14.01,2013-02-02 20:43:00,
2013-02-02 12:48:00,61.3,41.5,30.24,NNE,13,0.0,5.0,48,0.00,,CLR,0.00,VWS V14.01,2013-02-02 20:48:00,
2013-02-02 12:53:00,61.7,42.4,30.24,NE,45,2.0,5.0,49,0.00,,CLR,0.00,VWS V14.01,2013-02-02 20:53:00,
2013-02-02 12:58:00,61.9,41.5,30.24,NE,44,2.0,5.0,47,0.00,,CLR,0.00,VWS V14.01,2013-02-02 20:58:00,
2013-02-02 13:03:00,62.1,41.7,30.24,North,352,2.0,5.0,47,0.00,,CLR,0.00,VWS V14.01,2013-02-02 21:03:00,
2013-02-02 13:08:00,62.4,42.5,30.23,North,8,1.0,5.0,48,0.00,,CLR,0.00,VWS V14.01,2013-02-02 21:08:00,
2013-02-02 13:13:00,63.0,41.9,30.23,NE,47,2.0,5.0,46,0.00,,CLR,0.00,VWS V14.01,2013-02-02 21:13:00,
2013-02-02 13:18:00,62.9,41.3,30.23,NNE,27,4.0,7.0,45,0.00,,CLR,0.00,VWS V14.01,2013-02-02 21:18:00,
2013-02-02 13:23:00,63.0,41.9,30.23,NNE,32,1.0,7.0,46,0.00,,CLR,0.00,VWS V14.01,2013-02-02 21:23:00,
2013-02-02 13:28:00,63.7,42.5,30.22,NNE,30,2.0,7.0,46,0.00,,CLR,0.00,VWS V14.01,2013-02-02 21:28:00,
2013-02-02 13:33:00,63.4,41.7,30.22,NNE,31,2.0,7.0,45,0.00,,CLR,0.00,VWS V14.01,2013-02-02 21:33:00,
2013-02-02 13:38:00,63.6,42.5,30.22,NE,35,4.0,7.0,46,0.00,,CLR,0.00,VWS V14.01,2013-02-02 21:38:00,
2013-02-02 13:43:00,64.0,43.4,30.22,NNE,33,3.0,7.0,47,0.00,,CLR,0.00,VWS V14.01,2013-02-02 21:43:00,
2013-02-02 13:48:00,63.9,42.2,30.22,NE,41,3.0,7.0,45,0.00,,CLR,0.00,VWS V14.01,2013-02-02 21:48:00,
2013-02-02 13:53:00,64.2,42.4,30.21,North,359,4.0,7.0,45,0.00,,CLR,0.00,VWS V14.01,2013-02-02 21:53:00,
2013-02-02 13:58:00,64.1,42.3,30.21,NNE,25,3.0,7.0,45,0.00,,CLR,0.00,VWS V14.01,2013-02-02 21:58:00,
2013-02-02 14:03:00,64.4,42.6,30.21,NNE,19,3.0,4.0,45,0.00,,CLR,0.00,VWS V14.01,2013-02-02 22:03:00,
2013-02-02 14:08:00,64.7,42.3,30.21,NNE,27,0.0,6.0,44,0.00,,CLR,0.00,VWS V14.01,2013-02-02 22:08:00,
2013-02-02 14:13:00,64.9,42.5,30.20,NNE,32,4.0,7.0,44,0.00,,CLR,0.00,VWS V14.01,2013-02-02 22:13:00,
2013-02-02 14:18:00,64.7,42.3,30.20,NNE,27,4.0,7.0,44,0.00,,CLR,0.00,VWS V14.01,2013-02-02 22:18:00,
2013-02-02 14:23:00,65.3,43.4,30.20,NE,46,4.0,7.0,45,0.00,,CLR,0.00,VWS V14.01,2013-02-02 22:23:00,
2013-02-02 14:28:00,65.5,42.4,30.20,NNE,17,1.0,7.0,43,0.00,,CLR,0.00,VWS V14.01,2013-02-02 22:28:00,
2013-02-02 14:33:00,66.0,43.5,30.21,ENE,63,3.0,5.0,44,0.00,,CLR,0.00,VWS V14.01,2013-02-02 22:33:00,
2013-02-02 14:38:00,66.2,43.1,30.21,NE,41,0.0,5.0,43,0.00,,CLR,0.00,VWS V14.01,2013-02-02 22:38:00,
2013-02-02 14:43:00,66.3,42.5,30.21,NNE,23,1.0,5.0,42,0.00,,CLR,0.00,VWS V14.01,2013-02-02 22:43:00,
2013-02-02 14:48:00,66.4,43.2,30.21,NNE,26,0.0,5.0,43,0.00,,CLR,0.00,VWS V14.01,2013-02-02 22:48:00,
2013-02-02 14:53:00,66.6,43.4,30.21,NNE,27,2.0,5.0,43,0.00,,CLR,0.00,VWS V14.01,2013-02-02 22:53:00,
2013-02-02 14:58:00,66.6,43.4,30.21,NNE,19,1.0,5.0,43,0.00,,CLR,0.00,VWS V14.01,2013-02-02 22:58:00,
2013-02-02 15:03:00,66.4,42.6,30.21,NNE,15,2.0,4.0,42,0.00,,CLR,0.00,VWS V14.01,2013-02-02 23:03:00,
2013-02-02 15:08:00,66.0,42.3,30.21,NE,56,0.0,5.0,42,0.00,,CLR,0.00,VWS V14.01,2013-02-02 23:08:00,
2013-02-02 15:13:00,65.8,43.3,30.21,NNE,28,0.0,5.0,44,0.00,,CLR,0.00,VWS V14.01,2013-02-02 23:13:00,
2013-02-02 15:18:00,66.2,43.7,30.21,NNE,25,0.0,5.0,44,0.00,,CLR,0.00,VWS V14.01,2013-02-02 23:18:00,
2013-02-02 15:23:00,66.8,43.6,30.21,North,8,0.0,5.0,43,0.00,,CLR,0.00,VWS V14.01,2013-02-02 23:23:00,
2013-02-02 15:29:00,66.7,42.9,30.21,NNE,24,0.0,5.0,42,0.00,,CLR,0.00,VWS V14.01,2013-02-02 23:29:00,
2013-02-02 15:33:00,66.7,42.9,30.20,North,8,1.0,4.0,42,0.00,,CLR,0.00,VWS V14.01,2013-02-02 23:33:00,
2013-02-02 15:39:00,66.4,42.6,30.20,NNE,29,0.0,4.0,42,0.00,,CLR,0.00,VWS V14.01,2013-02-02 23:39:00,
2013-02-02 15:44:00,66.6,42.8,30.20,North,11,1.0,4.0,42,0.00,,CLR,0.00,VWS V14.01,2013-02-02 23:44:00,
2013-02-02 15:49:00,66.4,43.2,30.20,NNE,15,1.0,4.0,43,0.00,,CLR,0.00,VWS V14.01,2013-02-02 23:49:00,
2013-02-02 15:54:00,66.2,42.5,30.20,NNE,15,0.0,4.0,42,0.00,,CLR,0.00,VWS V14.01,2013-02-02 23:54:00,
2013-02-02 15:59:00,66.2,42.5,30.20,ESE,112,0.0,4.0,42,0.00,,CLR,0.00,VWS V14.01,2013-02-02 23:59:00,
2013-02-02 16:04:00,65.9,43.4,30.20,ENE,66,0.0,3.0,44,0.00,,CLR,0.00,VWS V14.01,2013-02-03 00:04:00,
2013-02-02 16:09:00,65.5,43.0,30.20,West,280,0.0,3.0,44,0.00,,CLR,0.00,VWS V14.01,2013-02-03 00:09:00,
2013-02-02 16:14:00,65.3,42.8,30.20,WNW,294,0.0,3.0,44,0.00,,CLR,0.00,VWS V14.01,2013-02-03 00:14:00,
2013-02-02 16:19:00,65.1,43.3,30.19,NNE,30,0.0,3.0,45,0.00,,CLR,0.00,VWS V14.01,2013-02-03 00:19:00,
2013-02-02 16:24:00,64.9,43.1,30.19,NE,34,0.0,3.0,45,0.00,,CLR,0.00,VWS V14.01,2013-02-03 00:24:00,
2013-02-02 16:29:00,64.7,43.5,30.19,NNE,16,0.0,3.0,46,0.00,,CLR,0.00,VWS V14.01,2013-02-03 00:29:00,
2013-02-02 16:34:00,64.3,43.7,30.19,NNE,17,0.0,0.0,47,0.00,,CLR,0.00,VWS V14.01,2013-02-03 00:34:00,
2013-02-02 16:39:00,64.0,43.9,30.19,NNE,17,0.0,0.0,48,0.00,,CLR,0.00,VWS V14.01,2013-02-03 00:39:00,
2013-02-02 16:44:00,63.7,44.2,30.19,East,93,0.0,1.0,49,0.00,,CLR,0.00,VWS V14.01,2013-02-03 00:44:00,
2013-02-02 16:49:00,63.2,43.7,30.19,East,94,0.0,1.0,49,0.00,,CLR,0.00,VWS V14.01,2013-02-03 00:49:00,
2013-02-02 16:54:00,62.9,44.0,30.19,East,95,0.0,1.0,50,0.00,,CLR,0.00,VWS V14.01,2013-02-03 00:54:00,
2013-02-02 16:59:00,62.6,43.7,30.19,East,95,0.0,1.0,50,0.00,,CLR,0.00,VWS V14.01,2013-02-03 00:59:00,
2013-02-02 17:04:00,62.3,44.0,30.19,East,98,0.0,0.0,51,0.00,,CLR,0.00,VWS V14.01,2013-02-03 01:04:00,
2013-02-02 17:09:00,62.1,43.8,30.19,East,99,0.0,0.0,51,0.00,,CLR,0.00,VWS V14.01,2013-02-03 01:09:00,
2013-02-02 17:14:00,61.7,44.4,30.20,SE,145,0.0,0.0,53,0.00,,CLR,0.00,VWS V14.01,2013-02-03 01:14:00,
2013-02-02 17:19:00,61.3,44.0,30.20,SSE,160,0.0,1.0,53,0.00,,CLR,0.00,VWS V14.01,2013-02-03 01:19:00,
2013-02-02 17:24:00,60.7,44.5,30.20,SSW,198,1.0,2.0,55,0.00,,CLR,0.00,VWS V14.01,2013-02-03 01:24:00,
2013-02-02 17:29:00,60.3,45.5,30.20,SW,215,1.0,3.0,58,0.00,,CLR,0.00,VWS V14.01,2013-02-03 01:29:00,
2013-02-02 17:34:00,59.9,45.5,30.20,SW,225,2.0,3.0,59,0.00,,CLR,0.00,VWS V14.01,2013-02-03 01:34:00,
2013-02-02 17:39:00,59.7,45.8,30.20,SSW,201,0.0,3.0,60,0.00,,CLR,0.00,VWS V14.01,2013-02-03 01:39:00,
2013-02-02 17:44:00,59.3,45.9,30.20,SSW,201,0.0,3.0,61,0.00,,CLR,0.00,VWS V14.01,2013-02-03 01:44:00,
2013-02-02 17:49:00,59.0,46.0,30.20,SSW,204,0.0,3.0,62,0.00,,CLR,0.00,VWS V14.01,2013-02-03 01:49:00,
2013-02-02 17:54:00,58.7,45.7,30.20,SSW,203,0.0,3.0,62,0.00,,CLR,0.00,VWS V14.01,2013-02-03 01:54:00,
2013-02-02 17:59:00,58.5,45.5,30.20,SW,217,1.0,3.0,62,0.00,,CLR,0.00,VWS V14.01,2013-02-03 01:59:00,
2013-02-02 18:04:00,58.4,45.5,30.20,SSW,201,1.0,3.0,62,0.00,,CLR,0.00,VWS V14.01,2013-02-03 02:04:00,
2013-02-02 18:09:00,58.3,45.3,30.20,South,171,1.0,3.0,62,0.00,,CLR,0.00,VWS V14.01,2013-02-03 02:09:00,
2013-02-02 18:14:00,58.2,45.3,30.20,SSW,208,0.0,3.0,62,0.00,,CLR,0.00,VWS V14.01,2013-02-03 02:14:00,
2013-02-02 18:19:00,58.1,45.2,30.20,SW,221,1.0,3.0,62,0.00,,CLR,0.00,VWS V14.01,2013-02-03 02:19:00,
2013-02-02 18:24:00,57.8,45.3,30.20,SSW,192,0.0,3.0,63,0.00,,CLR,0.00,VWS V14.01,2013-02-03 02:24:00,
2013-02-02 18:29:00,57.4,45.3,30.20,SSW,193,0.0,3.0,64,0.00,,CLR,0.00,VWS V14.01,2013-02-03 02:29:00,
2013-02-02 18:34:00,56.9,45.3,30.20,SSW,193,0.0,0.0,65,0.00,,CLR,0.00,VWS V14.01,2013-02-03 02:34:00,
2013-02-02 18:39:00,56.3,45.1,30.20,SSW,193,0.0,0.0,66,0.00,,CLR,0.00,VWS V14.01,2013-02-03 02:39:00,
2013-02-02 18:44:00,55.8,45.0,30.20,SSW,193,0.0,0.0,67,0.00,,CLR,0.00,VWS V14.01,2013-02-03 02:44:00,
2013-02-02 18:49:00,55.3,44.9,30.20,SSW,193,0.0,0.0,68,0.00,,CLR,0.00,VWS V14.01,2013-02-03 02:49:00,
2013-02-02 18:54:00,54.8,44.8,30.20,SSW,193,0.0,0.0,69,0.00,,CLR,0.00,VWS V14.01,2013-02-03 02:54:00,
2013-02-02 18:59:00,54.4,44.8,30.20,SSW,192,0.0,0.0,70,0.00,,CLR,0.00,VWS V14.01,2013-02-03 02:59:00,
2013-02-02 19:04:00,54.3,44.7,30.20,SSW,193,0.0,0.0,70,0.00,,CLR,0.00,VWS V14.01,2013-02-03 03:04:00,
2013-02-02 19:09:00,54.4,44.8,30.20,SSW,208,0.0,2.0,70,0.00,,CLR,0.00,VWS V14.01,2013-02-03 03:09:00,
2013-02-02 19:14:00,54.7,44.7,30.20,SSW,205,0.0,2.0,69,0.00,,CLR,0.00,VWS V14.01,2013-02-03 03:14:00,
2013-02-02 19:19:00,54.7,44.7,30.20,SSW,210,0.0,2.0,69,0.00,,CLR,0.00,VWS V14.01,2013-02-03 03:19:00,
2013-02-02 19:24:00,54.5,44.5,30.20,SSW,210,0.0,2.0,69,0.00,,CLR,0.00,VWS V14.01,2013-02-03 03:24:00,
2013-02-02 19:29:00,54.2,44.3,30.20,WSW,254,0.0,2.0,69,0.00,,CLR,0.00,VWS V14.01,2013-02-03 03:29:00,
2013-02-02 19:34:00,54.2,44.3,30.20,West,259,0.0,0.0,69,0.00,,CLR,0.00,VWS V14.01,2013-02-03 03:34:00,
2013-02-02 19:39:00,54.1,44.2,30.20,SW,224,0.0,1.0,69,0.00,,CLR,0.00,VWS V14.01,2013-02-03 03:39:00,
2013-02-02 19:44:00,54.0,44.1,30.20,SW,224,0.0,1.0,69,0.00,,CLR,0.00,VWS V14.01,2013-02-03 03:44:00,
2013-02-02 19:49:00,53.8,43.9,30.20,SW,224,0.0,1.0,69,0.00,,CLR,0.00,VWS V14.01,2013-02-03 03:49:00,
2013-02-02 19:54:00,53.7,43.8,30.20,SW,224,0.0,1.0,69,0.00,,CLR,0.00,VWS V14.01,2013-02-03 03:54:00,
2013-02-02 19:59:00,53.3,44.2,30.20,SW,224,0.0,1.0,71,0.00,,CLR,0.00,VWS V14.01,2013-02-03 03:59:00,
2013-02-02 20:04:00,52.6,44.2,30.20,SW,224,0.0,0.0,73,0.00,,CLR,0.00,VWS V14.01,2013-02-03 04:04:00,
2013-02-02 20:09:00,52.1,44.1,30.20,SW,224,0.0,0.0,74,0.00,,CLR,0.00,VWS V14.01,2013-02-03 04:09:00,
2013-02-02 20:14:00,51.6,44.0,30.20,SW,224,0.0,0.0,75,0.00,,CLR,0.00,VWS V14.01,2013-02-03 04:14:00,
2013-02-02 20:19:00,51.1,44.2,30.20,SW,224,0.0,0.0,77,0.00,,CLR,0.00,VWS V14.01,2013-02-03 04:19:00,
2013-02-02 20:24:00,50.9,44.0,30.20,West,277,0.0,1.0,77,0.00,,CLR,0.00,VWS V14.01,2013-02-03 04:24:00,
2013-02-02 20:29:00,50.6,44.0,30.20,West,277,0.0,1.0,78,0.00,,CLR,0.00,VWS V14.01,2013-02-03 04:29:00,
2013-02-02 20:34:00,50.4,43.8,30.20,West,277,0.0,0.0,78,0.00,,CLR,0.00,VWS V14.01,2013-02-03 04:34:00,
2013-02-02 20:39:00,50.1,43.5,30.20,West,277,0.0,0.0,78,0.00,,CLR,0.00,VWS V14.01,2013-02-03 04:39:00,
2013-02-02 20:44:00,50.0,43.8,30.20,West,277,0.0,0.0,79,0.00,,CLR,0.00,VWS V14.01,2013-02-03 04:44:00,
2013-02-02 20:49:00,50.2,43.6,30.20,West,277,0.0,0.0,78,0.00,,CLR,0.00,VWS V14.01,2013-02-03 04:49:00,
2013-02-02 20:54:00,50.3,43.7,30.20,West,277,0.0,0.0,78,0.00,,CLR,0.00,VWS V14.01,2013-02-03 04:54:00,
2013-02-02 20:59:00,50.4,43.5,30.20,NNE,16,0.0,0.0,77,0.00,,CLR,0.00,VWS V14.01,2013-02-03 04:59:00,
2013-02-02 21:00:00,50.3,43.4,30.20,NNE,16,0.0,0.0,77,0.00,,CLR,0.00,VWS V14.01,2013-02-03 05:00:00,
2013-02-02 21:01:00,50.2,43.3,30.20,NNE,15,0.0,0.0,77,0.00,,CLR,0.00,VWS V14.01,2013-02-03 05:01:00,
2013-02-02 21:03:00,49.9,43.3,30.20,NNE,15,0.0,0.0,78,0.00,,CLR,0.00,VWS V14.01,2013-02-03 05:03:00,
2013-02-02 21:08:00,49.3,43.1,30.20,NNE,15,0.0,0.0,79,0.00,,CLR,0.00,VWS V14.01,2013-02-03 05:08:00,
2013-02-02 21:13:00,49.1,43.2,30.20,NNE,15,0.0,0.0,80,0.00,,CLR,0.00,VWS V14.01,2013-02-03 05:13:00,
2013-02-02 21:18:00,48.8,42.9,30.20,NNE,15,0.0,0.0,80,0.00,,CLR,0.00,VWS V14.01,2013-02-03 05:18:00,
2013-02-02 21:23:00,48.4,42.8,30.20,NNE,15,0.0,0.0,81,0.00,,CLR,0.00,VWS V14.01,2013-02-03 05:23:00,
2013-02-02 21:28:00,48.2,43.0,30.20,NNE,15,0.0,0.0,82,0.00,,CLR,0.00,VWS V14.01,2013-02-03 05:28:00,
2013-02-02 21:33:00,48.0,42.8,30.20,NNE,15,0.0,0.0,82,0.00,,CLR,0.00,VWS V14.01,2013-02-03 05:33:00,
2013-02-02 21:38:00,47.8,42.9,30.20,NNE,16,0.0,0.0,83,0.00,,CLR,0.00,VWS V14.01,2013-02-03 05:38:00,
2013-02-02 21:43:00,48.0,43.1,30.20,WSW,246,0.0,0.0,83,0.00,,CLR,0.00,VWS V14.01,2013-02-03 05:43:00,
2013-02-02 21:48:00,48.1,43.2,30.20,WSW,245,0.0,0.0,83,0.00,,CLR,0.00,VWS V14.01,2013-02-03 05:48:00,
2013-02-02 21:53:00,48.0,43.1,30.20,WSW,246,0.0,0.0,83,0.00,,CLR,0.00,VWS V14.01,2013-02-03 05:53:00,
2013-02-02 21:58:00,48.2,43.3,30.19,WSW,246,0.0,0.0,83,0.00,,CLR,0.00,VWS V14.01,2013-02-03 05:58:00,
2013-02-02 22:03:00,48.5,43.3,30.19,WSW,245,0.0,0.0,82,0.00,,CLR,0.00,VWS V14.01,2013-02-03 06:03:00,
2013-02-02 22:08:00,48.5,43.0,30.19,WSW,246,0.0,0.0,81,0.00,,CLR,0.00,VWS V14.01,2013-02-03 06:08:00,
2013-02-02 22:13:00,48.3,43.1,30.19,WSW,245,0.0,0.0,82,0.00,,CLR,0.00,VWS V14.01,2013-02-03 06:13:00,
2013-02-02 22:18:00,47.9,42.7,30.19,WSW,246,0.0,0.0,82,0.00,,CLR,0.00,VWS V14.01,2013-02-03 06:18:00,
2013-02-02 22:23:00,47.6,43.0,30.19,WSW,245,0.0,0.0,84,0.00,,CLR,0.00,VWS V14.01,2013-02-03 06:23:00,
2013-02-02 22:28:00,47.3,42.7,30.19,WSW,245,0.0,0.0,84,0.00,,CLR,0.00,VWS V14.01,2013-02-03 06:28:00,
2013-02-02 22:33:00,47.0,42.4,30.19,WSW,246,0.0,0.0,84,0.00,,CLR,0.00,VWS V14.01,2013-02-03 06:33:00,
2013-02-02 22:38:00,46.6,42.3,30.19,WSW,245,0.0,0.0,85,0.00,,CLR,0.00,VWS V14.01,2013-02-03 06:38:00,
2013-02-02 22:43:00,46.8,42.5,30.19,WSW,246,0.0,0.0,85,0.00,,CLR,0.00,VWS V14.01,2013-02-03 06:43:00,
2013-02-02 22:48:00,46.9,42.6,30.19,WSW,246,0.0,0.0,85,0.00,,CLR,0.00,VWS V14.01,2013-02-03 06:48:00,
2013-02-02 22:53:00,46.8,42.5,30.19,WSW,246,0.0,0.0,85,0.00,,CLR,0.00,VWS V14.01,2013-02-03 06:53:00,
2013-02-02 22:58:00,47.0,42.4,30.19,WSW,246,0.0,0.0,84,0.00,,CLR,0.00,VWS V14.01,2013-02-03 06:58:00,
2013-02-02 23:03:00,46.9,42.6,30.20,WSW,245,0.0,0.0,85,0.00,,CLR,0.00,VWS V14.01,2013-02-03 07:03:00,
2013-02-02 23:08:00,46.7,42.4,30.20,WSW,246,0.0,0.0,85,0.00,,CLR,0.00,VWS V14.01,2013-02-03 07:08:00,
2013-02-02 23:13:00,46.6,42.0,30.20,WSW,245,0.0,0.0,84,0.00,,CLR,0.00,VWS V14.01,2013-02-03 07:13:00,
2013-02-02 23:18:00,46.4,42.1,30.20,WSW,246,0.0,0.0,85,0.00,,CLR,0.00,VWS V14.01,2013-02-03 07:18:00,
2013-02-02 23:23:00,46.0,41.8,30.20,WSW,245,0.0,0.0,85,0.00,,CLR,0.00,VWS V14.01,2013-02-03 07:23:00,
2013-02-02 23:28:00,45.9,42.3,30.20,WSW,245,0.0,0.0,87,0.00,,CLR,0.00,VWS V14.01,2013-02-03 07:28:00,
2013-02-02 23:33:00,45.9,42.0,30.20,WSW,245,0.0,0.0,86,0.00,,CLR,0.00,VWS V14.01,2013-02-03 07:33:00,
2013-02-02 23:38:00,45.9,42.3,30.20,WSW,246,0.0,0.0,87,0.00,,CLR,0.00,VWS V14.01,2013-02-03 07:38:00,
2013-02-02 23:43:00,46.0,42.0,30.20,WSW,246,0.0,0.0,86,0.00,,CLR,0.00,VWS V14.01,2013-02-03 07:43:00,
2013-02-02 23:48:00,45.8,41.5,30.20,WSW,246,0.0,0.0,85,0.00,,CLR,0.00,VWS V14.01,2013-02-03 07:48:00,
2013-02-02 23:53:00,45.8,41.9,30.20,WSW,245,0.0,0.0,86,0.00,,CLR,0.00,VWS V14.01,2013-02-03 07:53:00,
2013-02-02 23:58:00,45.7,41.5,30.20,WSW,248,0.0,0.0,85,0.00,,CLR,0.00,VWS V14.01,2013-02-03 07:58:00,